[[{"header":{"parameterUnit":"m.s-1","parameterCategory":1,"la1":30.2991,"la2":30.254,"lo1":-89.0895,"lo2":-89.0444,"dy":0.0017,"dx":0.0017,"nx":28,"ny":28,"refTime":"2024-10-04T21:00:00:Z","depth":0,"parameterNumber":2,"parameterNumberName":"U-component_of_WINDS"},"data":[0,0,0,0,0,0,0,0,0,0,0,0,0,0,0,0,0,0,0,0,0,0,0,0,0,0,0,0,0,0,0,0,0,0,0,0,0,0,0,0,0,0,0,0,0,0,0,0,0,0,0,0,0,0,0,0,0,0,-3.5041,-3.5041,0,-3.5011,-3.5011,-3.5011,-3.4899,-3.4896,-3.4893,-3.4891,-3.4864,-3.4866,-3.4867,0,0,0,0,0,0,0,0,0,0,0,0,0,-3.5006,-3.5007,-3.5041,-3.5041,-3.5041,-3.5011,-3.5011,-3.5011,-3.4899,-3.4896,-3.4893,-3.489,-3.4863,-3.4865,-3.4867,0,0,0,0,0,0,0,0,0,0,0,0,0,-3.5004,-3.5008,-3.5041,-3.4981,-3.4976,-3.5012,-3.5011,-3.5011,-3.49,-3.4896,-3.4892,-3.4888,-3.4863,-3.4865,-3.4868,-3.496,0,0,-3.4875,-3.4876,0,0,0,0,0,0,0,0,-3.5004,-3.5005,-3.4991,-3.4986,-3.4979,-3.4955,-3.4989,-3.4994,-3.4901,-3.4929,-3.4891,-3.4886,-3.4897,-3.4897,-3.49,-3.4959,-3.4958,-3.4875,-3.4877,-3.4878,-3.4879,0,0,0,0,0,0,0,-3.5004,-3.5006,-3.503,-3.499,-3.4984,-3.4957,-3.4953,-3.4989,-3.4935,-3.4926,-3.4918,-3.4915,-3.4894,-3.4898,-3.4898,-3.4957,-3.4875,-3.4878,-3.4879,-3.488,-3.5094,-3.5098,0,0,0,0,0,0,-3.5012,-3.5007,-3.503,-3.5029,-3.4982,-3.4961,-3.4956,-3.4967,-3.4934,-3.4926,-3.4919,-3.491,-3.4895,-3.4896,-3.4897,-3.5005,-3.4878,-3.488,-3.4882,-3.509,-3.5095,-3.5099,0,0,0,0,0,0,-3.5012,-3.5016,-3.5032,-3.5015,-3.5015,-3.4966,-3.4979,-3.4968,-3.4972,-3.4929,-3.4919,-3.4933,-3.4892,-3.4893,-3.4946,-3.5003,-3.4882,-3.4884,-3.5085,-3.5091,-3.5097,-3.5222,0,0,0,0,0,0,-3.5011,-3.5016,-3.505,-3.5017,-3.5017,-3.508,-3.4982,-3.497,-3.4976,-3.4965,-3.4939,-3.4931,-3.4889,-3.4943,-3.4948,-3.5004,-3.4886,-3.508,-3.5088,-3.5095,-3.5212,-3.5231,-3.5248,0,0,0,0,0,-3.5011,-3.5086,-3.5052,-3.5055,-3.5057,-3.5083,-3.5083,-3.5032,-3.4981,-3.5015,-3.4988,-3.4932,-3.4995,-3.4949,-3.4954,-3.5012,-3.5076,-3.5086,-3.5095,-3.5204,-3.5228,-3.5247,0,0,0,0,0,0,-3.5127,-3.508,-3.5042,-3.5109,-3.5101,-3.5064,-3.5106,-3.5058,-3.5065,-3.5055,-3.4992,-3.4987,-3.505,-3.5035,-3.4984,-3.5101,-3.5026,-3.5037,-3.5108,-3.513,-3.5147,-3.515,-3.4888,0,0,0,0,0,-3.5161,-3.5184,-3.5143,-3.5206,-3.5204,-3.5156,-3.5165,-3.5127,-3.5116,-3.5113,-3.5089,-3.5082,-3.5101,-3.5114,-3.5128,-3.5209,-3.5204,-3.5252,-3.5269,-3.5284,-3.5295,-3.5339,-3.5361,-3.513,-3.513,-3.513,0,0,-3.523,-3.5207,-3.5226,-3.5229,-3.5218,-3.5246,-3.5154,-3.5186,-3.5207,-3.5118,-3.5166,-3.5149,-3.5137,-3.5205,-3.5234,-3.5195,-3.5357,-3.5296,-3.5308,-3.5311,-3.5351,-3.5373,-3.5393,-3.5137,-3.5136,-3.5134,0,0,-3.5371,-3.5355,-3.5407,-3.5398,-3.5383,-3.5351,-3.5364,-3.5335,-3.532,-3.5367,-3.5302,-3.5326,-3.5358,-3.5354,-3.5356,-3.5497,-3.5447,-3.5504,-3.5597,-3.5641,-3.5659,-3.5675,-3.5728,-3.5747,-3.5514,-3.5515,-3.5515,0,-3.5459,-3.5497,-3.544,-3.5478,-3.5482,-3.5402,-3.5455,-3.545,-3.5441,-3.5446,-3.5403,-3.5444,-3.543,-3.5497,-3.5532,-3.5535,-3.5549,-3.5507,-3.5661,-3.5676,-3.569,-3.574,-3.576,-3.5522,-3.5521,-3.552,-3.5519,0,-3.5608,-3.5636,-3.5679,-3.5673,-3.5681,-3.5727,-3.5678,-3.5694,-3.5656,-3.5629,-3.568,-3.5661,-3.5671,-3.5684,-3.5646,-3.5746,-3.5723,-3.5672,-3.5596,-3.572,-3.5766,-3.5784,-3.5532,-3.5529,-3.5527,-3.5525,0,0,-3.5821,-3.5783,-3.58,-3.5797,-3.5775,-3.5796,-3.5839,-3.5849,-3.5865,-3.5862,-3.5898,-3.5928,-3.588,-3.5883,-3.5844,-3.5883,-3.5999,-3.5826,-3.5825,-3.5861,-3.6111,-3.6151,-3.6174,-3.5965,-3.5969,-3.5971,-3.6113,0,-3.5957,-3.6026,-3.5977,-3.6056,-3.6082,-3.6008,-3.6046,-3.6038,-3.6015,-3.6035,-3.6009,-3.6032,-3.5967,-3.5968,-3.6003,-3.5978,-3.6049,-3.5967,-3.6,-3.6002,-3.6007,-3.6198,-3.624,-3.6374,-3.613,-3.6133,-3.6135,0,-3.6124,-3.6128,-3.621,-3.6185,-3.6194,-3.6229,-3.6235,-3.6254,-3.6245,-3.6225,-3.6229,-3.6181,-3.6224,-3.6148,-3.6207,-3.6153,-3.6164,-3.6154,-3.6158,-3.616,-3.6077,-3.6207,-3.6415,-3.6436,-3.6162,-3.616,-3.6158,0,-3.6274,-3.63,-3.6353,-3.6352,-3.6324,-3.6351,-3.634,-3.6326,-3.6336,-3.6342,-3.6348,-3.6359,-3.6365,-3.6376,-3.6333,-3.6282,-3.6399,-3.632,-3.6386,-3.6388,-3.6415,-3.6414,-3.663,-3.642,-3.642,-3.6419,-3.6419,0,-3.6431,-3.6485,-3.642,-3.6453,-3.6512,-3.6455,-3.6515,-3.6497,-3.6486,-3.6516,-3.6452,-3.6481,-3.6422,-3.6446,-3.6413,-3.6469,-3.6472,-3.6459,-3.645,-3.6465,-3.6468,-3.6473,-3.6463,-3.6424,-3.6423,-3.6422,-3.6421,0,-3.6609,-3.6567,-3.6621,-3.659,-3.6583,-3.6628,-3.6602,-3.6633,-3.6605,-3.6644,-3.6649,-3.6607,-3.6632,-3.6591,-3.6611,-3.6589,-3.6667,-3.6642,-3.667,-3.6663,-3.6733,-3.6728,-3.6961,-3.699,-3.676,-3.6762,-3.6764,0,-3.6713,-3.6752,-3.6726,-3.6741,-3.6734,-3.6759,-3.6768,-3.6715,-3.6728,-3.6721,-3.6753,-3.6773,-3.6786,-3.683,-3.6802,-3.6818,-3.6795,-3.6875,-3.6797,-3.6812,-3.6798,-3.6797,-3.6802,-3.6892,-3.6895,-3.6897,-3.6899,0,-3.6903,-3.6881,-3.6896,-3.6906,-3.6919,-3.6924,-3.6925,-3.6941,-3.6885,-3.6904,-3.6928,-3.6938,-3.6959,-3.698,-3.699,-3.6981,-3.6932,-3.6924,-3.694,-3.6958,-3.6973,-3.6968,-3.6716,-3.6919,-3.6917,-3.6915,-3.6914,-3.6913,-3.7048,-3.708,-3.7068,-3.7088,-3.7083,-3.7085,-3.7113,-3.7089,-3.7108,-3.7121,-3.7089,-3.7122,-3.7113,-3.7121,-3.7117,-3.7144,-3.7108,-3.7132,-3.7138,-3.7145,-3.7157,-3.6968,-3.7145,-3.7144,-3.7144,-3.7143,-3.7143,0,-3.7236,-3.7224,-3.7244,-3.7247,-3.7264,-3.7215,-3.7213,-3.7231,-3.7261,-3.7257,-3.7271,-3.7301,-3.7322,-3.7296,-3.7313,-3.7339,-3.7317,-3.7345,-3.7344,-3.7343,-3.7187,-3.7172,-3.7363,-3.7363,-3.7363,-3.7363,-3.7363,-3.7363,-3.7336,-3.7389,-3.7366,-3.7417,-3.7405,-3.7437,-3.7441,-3.7444,-3.744,-3.7476,-3.7493,-3.7475,-3.7463,-3.7479,-3.7497,-3.7489,-3.7499,-3.7536,-3.7521,-3.7375,-3.7354,-3.7333,-3.7319,-3.7538,-3.7538,-3.7675,-3.7676,-3.7677]},{"header":{"parameterUnit":"m.s-1","parameterCategory":1,"la1":30.2991,"la2":30.254,"lo1":-89.0895,"lo2":-89.0444,"dy":0.0017,"dx":0.0017,"nx":28,"ny":28,"refTime":"2024-10-04T21:00:00:Z","depth":0,"parameterNumber":3,"parameterNumberName":"V-component_of_WINDS"},"data":[0,0,0,0,0,0,0,0,0,0,0,0,0,0,0,0,0,0,0,0,0,0,0,0,0,0,0,0,0,0,0,0,0,0,0,0,0,0,0,0,0,0,0,0,0,0,0,0,0,0,0,0,0,0,0,0,0,0,-2.2121,-2.212,0,-2.2047,-2.2047,-2.2046,-2.2,-2.2,-2.2,-2.2,-2.192,-2.1918,-2.1916,0,0,0,0,0,0,0,0,0,0,0,0,0,-2.2218,-2.2216,-2.2121,-2.212,-2.2119,-2.2048,-2.2047,-2.2046,-2.2,-2.2,-2.2,-2.2,-2.1921,-2.1918,-2.1916,0,0,0,0,0,0,0,0,0,0,0,0,0,-2.2163,-2.2216,-2.2121,-2.2088,-2.2084,-2.2048,-2.2047,-2.2045,-2.2001,-2.2,-2.2,-2.2,-2.1921,-2.1919,-2.1916,-2.1905,0,0,-2.1907,-2.1906,0,0,0,0,0,0,0,0,-2.2166,-2.216,-2.2094,-2.209,-2.2086,-2.2033,-2.2051,-2.1998,-2.2001,-2.2032,-2.2,-2.1999,-2.1957,-2.1952,-2.1938,-2.1901,-2.1897,-2.1907,-2.1905,-2.1904,-2.1903,0,0,0,0,0,0,0,-2.217,-2.2162,-2.2092,-2.2093,-2.2088,-2.2076,-2.2067,-2.2041,-2.1997,-2.2029,-2.2026,-2.2018,-2.1955,-2.1941,-2.1936,-2.1896,-2.1907,-2.1904,-2.1902,-2.1901,-2.1847,-2.1847,0,0,0,0,0,0,-2.218,-2.2166,-2.2094,-2.2089,-2.2126,-2.2074,-2.2065,-2.205,-2.1998,-2.1989,-2.2019,-2.2016,-2.1946,-2.194,-2.1933,-2.1918,-2.1904,-2.1901,-2.1899,-2.1846,-2.1847,-2.1847,0,0,0,0,0,0,-2.2182,-2.2174,-2.2097,-2.2127,-2.2116,-2.2073,-2.2057,-2.2049,-2.2035,-2.199,-2.1981,-2.2013,-2.1946,-2.1937,-2.1913,-2.1914,-2.19,-2.1897,-2.1846,-2.1847,-2.1847,-2.1886,0,0,0,0,0,0,-2.2185,-2.2175,-2.2171,-2.2127,-2.2115,-2.2079,-2.2057,-2.2048,-2.2031,-2.2027,-2.1982,-2.1974,-2.1945,-2.1917,-2.191,-2.191,-2.1895,-2.1846,-2.1846,-2.1847,-2.1885,-2.1888,-2.1891,0,0,0,0,0,-2.2189,-2.2184,-2.2171,-2.2163,-2.2109,-2.2079,-2.2072,-2.204,-2.2031,-2.2026,-2.1997,-2.1975,-2.1915,-2.1915,-2.1906,-2.1906,-2.1846,-2.1846,-2.1847,-2.1883,-2.1887,-2.1891,0,0,0,0,0,0,-2.2227,-2.2177,-2.2163,-2.2144,-2.2117,-2.2072,-2.2065,-2.2045,-2.2018,-2.2016,-2.1976,-2.1966,-2.1946,-2.1923,-2.1924,-2.1893,-2.1878,-2.1877,-2.1909,-2.1912,-2.1915,-2.1921,-2.1892,0,0,0,0,0,-2.2234,-2.2215,-2.2172,-2.2159,-2.2146,-2.2108,-2.2094,-2.2072,-2.2041,-2.2029,-2.1997,-2.1967,-2.1941,-2.1925,-2.1899,-2.1881,-2.187,-2.1876,-2.1879,-2.1882,-2.1882,-2.1871,-2.1873,-2.1849,-2.1849,-2.1849,0,0,-2.2247,-2.2217,-2.2207,-2.2166,-2.2142,-2.2123,-2.2099,-2.2078,-2.2063,-2.2025,-2.2001,-2.1977,-2.194,-2.1919,-2.1908,-2.19,-2.1886,-2.1883,-2.1886,-2.1883,-2.1872,-2.1874,-2.1877,-2.185,-2.185,-2.1849,0,0,-2.2261,-2.2236,-2.2224,-2.2201,-2.2166,-2.2141,-2.2138,-2.2096,-2.2079,-2.2055,-2.2026,-2.2006,-2.1963,-2.1938,-2.192,-2.1926,-2.1905,-2.1918,-2.1934,-2.1925,-2.1927,-2.1928,-2.1931,-2.1932,-2.1918,-2.1918,-2.1918,0,-2.2281,-2.2252,-2.222,-2.2202,-2.2185,-2.2151,-2.2138,-2.2116,-2.2073,-2.2062,-2.2053,-2.1999,-2.1971,-2.1945,-2.1947,-2.1932,-2.1928,-2.1923,-2.1929,-2.193,-2.1931,-2.1933,-2.1934,-2.192,-2.192,-2.1919,-2.1919,0,-2.2279,-2.2259,-2.2252,-2.2215,-2.2196,-2.2181,-2.2145,-2.2131,-2.211,-2.2086,-2.2061,-2.2028,-2.1995,-2.1986,-2.1965,-2.1957,-2.1953,-2.1937,-2.1921,-2.1936,-2.1938,-2.1938,-2.1923,-2.1922,-2.1921,-2.1921,0,0,-2.2314,-2.226,-2.2259,-2.2241,-2.22,-2.2184,-2.2166,-2.2136,-2.2124,-2.2096,-2.208,-2.2045,-2.203,-2.201,-2.1986,-2.1977,-2.1985,-2.1962,-2.1961,-2.1969,-2.1974,-2.1987,-2.1988,-2.1971,-2.197,-2.197,-2.1977,0,-2.2323,-2.2292,-2.2263,-2.2243,-2.2224,-2.2192,-2.2177,-2.2149,-2.2126,-2.2106,-2.2079,-2.2055,-2.2038,-2.2025,-2.2015,-2.1986,-2.1986,-2.1985,-2.1955,-2.1954,-2.1966,-2.1989,-2.2002,-2.201,-2.1977,-2.1978,-2.1978,0,-2.2329,-2.2304,-2.2283,-2.2245,-2.2235,-2.2223,-2.2193,-2.2174,-2.2142,-2.2125,-2.2104,-2.2079,-2.2058,-2.2045,-2.2015,-2.2016,-2.2001,-2.1985,-2.1985,-2.1981,-2.1967,-2.1986,-2.2011,-2.2013,-2.1978,-2.1978,-2.1978,0,-2.2359,-2.232,-2.2302,-2.2288,-2.2243,-2.2235,-2.2215,-2.2183,-2.2167,-2.214,-2.2129,-2.21,-2.2084,-2.2061,-2.2029,-2.2022,-2.2003,-2.1987,-2.1988,-2.1989,-2.1986,-2.1987,-2.201,-2.1976,-2.1976,-2.1976,-2.1976,0,-2.2371,-2.2359,-2.2315,-2.2304,-2.229,-2.2256,-2.2242,-2.2219,-2.2191,-2.2175,-2.2144,-2.2129,-2.2087,-2.2066,-2.204,-2.2021,-2.2013,-2.1999,-2.1992,-2.2002,-2.2004,-2.1993,-2.1991,-2.1976,-2.1976,-2.1976,-2.1976,0,-2.2402,-2.2372,-2.2351,-2.2311,-2.23,-2.2291,-2.2256,-2.2244,-2.2219,-2.2199,-2.2192,-2.2152,-2.2127,-2.2092,-2.2055,-2.2038,-2.2021,-2.201,-2.2033,-2.2029,-2.2033,-2.2034,-2.2051,-2.2051,-2.2016,-2.2017,-2.2017,0,-2.2413,-2.2404,-2.2363,-2.2351,-2.2333,-2.2313,-2.2297,-2.2263,-2.2247,-2.2211,-2.2203,-2.2175,-2.2152,-2.2112,-2.2079,-2.2051,-2.2039,-2.2047,-2.2035,-2.2045,-2.204,-2.2042,-2.2041,-2.205,-2.2051,-2.2051,-2.2052,0,-2.2436,-2.2422,-2.2401,-2.2375,-2.2357,-2.2334,-2.231,-2.2301,-2.2262,-2.2246,-2.222,-2.2202,-2.2165,-2.2138,-2.2106,-2.2084,-2.2061,-2.2056,-2.2055,-2.2065,-2.2079,-2.2073,-2.2042,-2.2056,-2.2055,-2.2055,-2.2055,-2.2055,-2.2457,-2.2448,-2.2418,-2.2396,-2.2375,-2.2353,-2.234,-2.2315,-2.2293,-2.2262,-2.2243,-2.2218,-2.2187,-2.2141,-2.2121,-2.21,-2.2091,-2.2089,-2.2089,-2.2089,-2.2093,-2.2082,-2.2094,-2.2094,-2.2093,-2.2093,-2.2093,0,-2.2479,-2.2459,-2.2439,-2.2407,-2.239,-2.2372,-2.2344,-2.233,-2.231,-2.2283,-2.2261,-2.2232,-2.2206,-2.2171,-2.2142,-2.2133,-2.2122,-2.2126,-2.2127,-2.2123,-2.2102,-2.2107,-2.2136,-2.2136,-2.2136,-2.2136,-2.2136,-2.2136,-2.2489,-2.2472,-2.2455,-2.2427,-2.2406,-2.2383,-2.2369,-2.2349,-2.2328,-2.2297,-2.2276,-2.2255,-2.2225,-2.2194,-2.2169,-2.2159,-2.215,-2.2158,-2.2146,-2.2128,-2.2124,-2.212,-2.2124,-2.2156,-2.2156,-2.2167,-2.2167,-2.2167]}]]